Orbital Elements at Epoch 2459200.5 (2020-Dec-17.0) TDB
Reference: JPL 27 (heliocentric ecliptic J2000)
Element | Value | Uncertainty (1-sigma) | Units |
e | .1119420987006922 | 4.123e-08 | |
a | 2.575613568302366 | 1.1997e-08 | au |
q | 2.287293980024621 | 1.0871e-07 | au |
i | 13.97690433755285 | 3.9796e-06 | deg |
node | 257.153152693697 | 1.9263e-05 | deg |
peri | 134.9177371632908 | 2.7638e-05 | deg |
M | 77.97911485800478 | 1.959e-05 | deg |
tp | 2458873.464209747340 (2020-Jan-24.96420975) | 8.1698e-05 | TDB |
period | 1509.800216446956 4.13 | 1.0549e-05 2.888e-08 | d yr |
n | .2384421435885043 | 1.6659e-09 | deg/d |
Q | 2.863933156580111 | 1.334e-08 | au |
|
| | Orbit Determination Parameters
Additional Information
|